Location: Newark
(22.3145°N, 88.6625°E)
Time: 10:48:54
(UTC+00:00)

Envisat - Pass Details

Date: 01 October 2019
Orbit: 764 x 766 km, 98.1° (Epoch: 19 October)

Event Time Altitude Azimuth Distance (km) Brightness Sun altitude
Rises 12:27:08 0° 168° (SSE) 3,217 6.1 -8.6°
Reaches altitude 10° 12:29:26 10° 169° (SSE) 2,293 5.4 -9.1°
Maximum altitude 12:34:30 86° 259° (W) 770 3.1 -10.3°
Drops below altitude 10° 12:39:34 10° 347° (NNW) 2,300 5.7 -11.5°
Sets 12:41:53 0° 348° (NNW) 3,228 6.4 -12.0°
